Time,TemperatureF,DewpointF,PressureIn,WindDirection,WindDirectionDegrees,WindSpeedMPH,WindSpeedGustMPH,Humidity,HourlyPrecipIn,Conditions,Clouds,dailyrainin,SoftwareType,DateUTC
2013-07-09 00:01:00,68.6,65.5,29.96,WSW,248,0.2,0.7,90,0.00,,,0.00,WUHU216HW,2013-07-09 04:01:00,
2013-07-09 00:02:00,68.6,65.5,29.96,SSW,203,1.1,1.1,90,0.00,,,0.00,WUHU216HW,2013-07-09 04:02:00,
2013-07-09 00:07:00,68.6,65.5,29.96,SSE,158,0.0,1.1,90,0.00,,,0.00,WUHU216HW,2013-07-09 04:07:00,
2013-07-09 00:12:00,68.6,65.5,29.96,South,180,0.0,1.1,90,0.00,,,0.00,WUHU216HW,2013-07-09 04:12:00,
2013-07-09 00:17:00,68.6,65.5,29.96,South,180,0.0,0.0,90,0.00,,,0.00,WUHU216HW,2013-07-09 04:17:00,
2013-07-09 00:22:00,68.4,65.3,29.96,South,180,0.0,0.9,90,0.00,,,0.00,WUHU216HW,2013-07-09 04:22:00,
2013-07-09 00:27:00,68.4,65.0,29.96,SSW,203,0.0,0.9,89,0.00,,,0.00,WUHU216HW,2013-07-09 04:27:00,
2013-07-09 00:32:00,68.4,65.0,29.96,West,270,0.4,1.1,89,0.00,,,0.00,WUHU216HW,2013-07-09 04:32:00,
2013-07-09 00:37:00,68.4,65.0,29.96,West,270,0.0,1.1,89,0.00,,,0.00,WUHU216HW,2013-07-09 04:37:00,
2013-07-09 00:42:00,68.4,65.0,29.96,West,270,0.0,0.0,89,0.00,,,0.00,WUHU216HW,2013-07-09 04:42:00,
2013-07-09 00:47:00,68.2,64.8,29.96,West,270,0.0,0.0,89,0.00,,,0.00,WUHU216HW,2013-07-09 04:47:00,
2013-07-09 00:52:00,68.0,65.0,29.95,NNE,23,0.9,0.9,90,0.00,,,0.00,WUHU216HW,2013-07-09 04:52:00,
2013-07-09 00:57:00,67.9,64.8,29.96,WNW,293,1.3,1.3,90,0.00,,,0.00,WUHU216HW,2013-07-09 04:57:00,
2013-07-09 01:02:00,67.7,64.6,29.96,WSW,248,1.8,1.8,90,0.00,,,0.00,WUHU216HW,2013-07-09 05:02:00,
2013-07-09 01:07:00,67.5,64.4,29.96,West,270,0.0,2.0,90,0.00,,,0.00,WUHU216HW,2013-07-09 05:07:00,
2013-07-09 01:12:00,67.5,64.4,29.96,South,180,1.1,2.7,90,0.00,,,0.00,WUHU216HW,2013-07-09 05:12:00,
2013-07-09 01:17:00,67.5,64.4,29.96,SSW,203,0.9,2.7,90,0.00,,,0.00,WUHU216HW,2013-07-09 05:17:00,
2013-07-09 01:22:00,67.5,64.4,29.96,SSW,203,1.1,1.8,90,0.00,,,0.00,WUHU216HW,2013-07-09 05:22:00,
2013-07-09 01:27:00,67.5,64.4,29.96,SSW,203,0.0,1.8,90,0.00,,,0.00,WUHU216HW,2013-07-09 05:27:00,
2013-07-09 01:32:00,67.5,64.4,29.96,SSW,203,0.0,1.3,90,0.00,,,0.00,WUHU216HW,2013-07-09 05:32:00,
2013-07-09 01:37:00,67.5,64.4,29.96,SSW,203,0.0,0.0,90,0.00,,,0.00,WUHU216HW,2013-07-09 05:37:00,
2013-07-09 01:42:00,67.5,64.4,29.96,SE,135,1.1,1.1,90,0.00,,,0.00,WUHU216HW,2013-07-09 05:42:00,
2013-07-09 01:47:00,67.5,64.4,29.96,SE,135,2.5,2.5,90,0.00,,,0.00,WUHU216HW,2013-07-09 05:47:00,
2013-07-09 01:52:00,67.5,64.4,29.96,SSE,158,0.2,3.1,90,0.00,,,0.00,WUHU216HW,2013-07-09 05:52:00,
2013-07-09 01:57:00,67.5,64.4,29.97,NW,315,0.7,3.1,90,0.00,,,0.00,WUHU216HW,2013-07-09 05:57:00,
2013-07-09 02:02:00,67.5,64.4,29.96,North,0,0.4,1.6,90,0.00,,,0.00,WUHU216HW,2013-07-09 06:02:00,
2013-07-09 02:07:00,67.3,64.3,29.96,North,0,0.0,1.1,90,0.00,,,0.00,WUHU216HW,2013-07-09 06:07:00,
2013-07-09 02:12:00,67.3,64.3,29.97,NNE,23,1.3,1.3,90,0.00,,,0.00,WUHU216HW,2013-07-09 06:12:00,
2013-07-09 02:17:00,67.3,64.5,29.96,NNE,23,0.4,1.3,91,0.00,,,0.00,WUHU216HW,2013-07-09 06:17:00,
2013-07-09 02:22:00,67.3,64.3,29.97,North,0,0.0,1.3,90,0.00,,,0.00,WUHU216HW,2013-07-09 06:22:00,
2013-07-09 02:27:00,67.3,64.3,29.96,NW,315,0.9,1.1,90,0.00,,,0.00,WUHU216HW,2013-07-09 06:27:00,
2013-07-09 02:32:00,67.3,64.5,29.96,NW,315,0.0,1.1,91,0.00,,,0.00,WUHU216HW,2013-07-09 06:32:00,
2013-07-09 02:37:00,67.3,64.5,29.96,NW,315,0.0,0.4,91,0.00,,,0.00,WUHU216HW,2013-07-09 06:37:00,
2013-07-09 02:42:00,67.3,64.5,29.96,NW,315,0.0,0.7,91,0.00,,,0.00,WUHU216HW,2013-07-09 06:42:00,
2013-07-09 02:47:00,67.3,64.5,29.96,NW,315,0.0,0.7,91,0.00,,,0.00,WUHU216HW,2013-07-09 06:47:00,
2013-07-09 02:52:00,67.3,64.5,29.96,NW,315,0.0,0.0,91,0.00,,,0.00,WUHU216HW,2013-07-09 06:52:00,
2013-07-09 02:57:00,67.3,64.5,29.96,West,270,1.1,1.1,91,0.00,,,0.00,WUHU216HW,2013-07-09 06:57:00,
2013-07-09 03:02:00,67.3,64.5,29.96,WSW,248,0.9,1.6,91,0.00,,,0.00,WUHU216HW,2013-07-09 07:02:00,
2013-07-09 03:07:00,67.3,64.5,29.96,WSW,248,0.0,1.6,91,0.00,,,0.00,WUHU216HW,2013-07-09 07:07:00,
2013-07-09 03:12:00,67.3,64.5,29.96,WSW,248,0.0,1.1,91,0.00,,,0.00,WUHU216HW,2013-07-09 07:12:00,
2013-07-09 03:17:00,67.3,64.5,29.96,SW,225,0.0,1.1,91,0.00,,,0.00,WUHU216HW,2013-07-09 07:17:00,
2013-07-09 03:22:00,67.3,64.5,29.96,SW,225,0.0,0.7,91,0.00,,,0.00,WUHU216HW,2013-07-09 07:22:00,
2013-07-09 03:27:00,67.3,64.5,29.96,SW,225,0.0,0.7,91,0.00,,,0.00,WUHU216HW,2013-07-09 07:27:00,
2013-07-09 03:32:00,67.3,64.5,29.96,SW,225,0.0,0.7,91,0.00,,,0.00,WUHU216HW,2013-07-09 07:32:00,
2013-07-09 03:37:00,67.3,64.5,29.96,SW,225,0.0,0.0,91,0.00,,,0.00,WUHU216HW,2013-07-09 07:37:00,
2013-07-09 03:42:00,67.3,64.5,29.96,SW,225,0.0,0.0,91,0.00,,,0.00,WUHU216HW,2013-07-09 07:42:00,
2013-07-09 03:47:00,67.3,64.5,29.96,SW,225,0.0,0.0,91,0.00,,,0.00,WUHU216HW,2013-07-09 07:47:00,
2013-07-09 03:52:00,67.3,64.5,29.96,SW,225,0.0,0.0,91,0.00,,,0.00,WUHU216HW,2013-07-09 07:52:00,
2013-07-09 03:57:00,67.3,64.5,29.96,SW,225,0.0,0.0,91,0.00,,,0.00,WUHU216HW,2013-07-09 07:57:00,
2013-07-09 04:02:00,67.3,64.5,29.96,SW,225,0.0,0.0,91,0.00,,,0.00,WUHU216HW,2013-07-09 08:02:00,
2013-07-09 04:07:00,67.3,64.5,29.96,WSW,248,1.1,1.1,91,0.00,,,0.00,WUHU216HW,2013-07-09 08:07:00,
2013-07-09 04:12:00,67.3,64.5,29.96,WSW,248,1.1,1.3,91,0.00,,,0.00,WUHU216HW,2013-07-09 08:12:00,
2013-07-09 04:17:00,67.3,64.5,29.96,WSW,248,0.9,1.3,91,0.00,,,0.00,WUHU216HW,2013-07-09 08:17:00,
2013-07-09 04:22:00,67.3,64.5,29.96,NW,315,0.0,1.1,91,0.00,,,0.00,WUHU216HW,2013-07-09 08:22:00,
2013-07-09 04:27:00,67.3,64.5,29.96,North,0,0.4,1.1,91,0.00,,,0.00,WUHU216HW,2013-07-09 08:27:00,
2013-07-09 04:32:00,67.3,64.5,29.96,North,0,0.0,0.7,91,0.00,,,0.00,WUHU216HW,2013-07-09 08:32:00,
2013-07-09 04:37:00,67.1,64.4,29.96,North,0,0.0,0.4,91,0.00,,,0.00,WUHU216HW,2013-07-09 08:37:00,
2013-07-09 04:42:00,67.1,64.4,29.96,North,0,0.0,0.0,91,0.00,,,0.00,WUHU216HW,2013-07-09 08:42:00,
2013-07-09 04:47:00,67.1,64.4,29.96,North,0,0.0,0.0,91,0.00,,,0.00,WUHU216HW,2013-07-09 08:47:00,
2013-07-09 04:52:00,67.3,64.5,29.96,SSW,203,0.7,1.8,91,0.00,,,0.00,WUHU216HW,2013-07-09 08:52:00,
2013-07-09 04:57:00,67.3,64.5,29.96,SSW,203,0.0,1.8,91,0.00,,,0.00,WUHU216HW,2013-07-09 08:57:00,
2013-07-09 05:02:00,67.3,64.5,29.96,WNW,293,0.7,0.9,91,0.00,,,0.00,WUHU216HW,2013-07-09 09:02:00,
2013-07-09 05:07:00,67.1,64.4,29.96,WNW,293,0.0,0.9,91,0.00,,,0.00,WUHU216HW,2013-07-09 09:07:00,
2013-07-09 05:12:00,67.1,64.4,29.96,WNW,293,0.0,0.7,91,0.00,,,0.00,WUHU216HW,2013-07-09 09:12:00,
2013-07-09 05:17:00,67.3,64.5,29.96,West,270,0.9,1.1,91,0.00,,,0.00,WUHU216HW,2013-07-09 09:17:00,
2013-07-09 05:22:00,67.1,64.4,29.96,West,270,0.9,1.1,91,0.00,,,0.00,WUHU216HW,2013-07-09 09:22:00,
2013-07-09 05:27:00,67.1,64.4,29.97,West,270,0.7,1.8,91,0.00,,,0.00,WUHU216HW,2013-07-09 09:27:00,
2013-07-09 05:32:00,67.0,64.2,29.97,West,270,0.4,1.8,91,0.00,,,0.00,WUHU216HW,2013-07-09 09:32:00,
2013-07-09 05:37:00,67.0,64.2,29.97,West,270,0.0,0.7,91,0.00,,,0.00,WUHU216HW,2013-07-09 09:37:00,
2013-07-09 05:42:00,67.0,64.2,29.97,West,270,0.7,1.1,91,0.00,,,0.00,WUHU216HW,2013-07-09 09:42:00,
2013-07-09 05:47:00,66.8,64.0,29.97,West,270,0.4,1.1,91,0.01,,,0.01,WUHU216HW,2013-07-09 09:47:00,
2013-07-09 05:52:00,66.8,64.0,29.97,West,270,0.0,1.1,91,0.01,,,0.01,WUHU216HW,2013-07-09 09:52:00,
2013-07-09 05:57:00,66.8,64.0,29.98,West,270,0.9,0.9,91,0.01,,,0.01,WUHU216HW,2013-07-09 09:57:00,
2013-07-09 06:02:00,67.0,64.2,29.98,West,270,0.4,1.1,91,0.01,,,0.01,WUHU216HW,2013-07-09 10:02:00,
2013-07-09 06:07:00,66.8,64.0,29.98,WSW,248,0.0,1.3,91,0.01,,,0.01,WUHU216HW,2013-07-09 10:07:00,
2013-07-09 06:12:00,67.0,64.2,29.98,West,270,0.0,1.3,91,0.01,,,0.01,WUHU216HW,2013-07-09 10:12:00,
2013-07-09 06:17:00,67.0,64.2,29.98,WNW,293,0.4,1.1,91,0.01,,,0.01,WUHU216HW,2013-07-09 10:17:00,
2013-07-09 06:22:00,67.0,64.2,29.98,WNW,293,0.4,1.3,91,0.01,,,0.01,WUHU216HW,2013-07-09 10:22:00,
2013-07-09 06:27:00,67.0,64.2,29.98,West,270,0.0,1.3,91,0.01,,,0.01,WUHU216HW,2013-07-09 10:27:00,
2013-07-09 06:32:00,67.1,64.4,29.99,NNW,338,0.0,0.7,91,0.01,,,0.01,WUHU216HW,2013-07-09 10:32:00,
2013-07-09 06:37:00,67.3,64.5,29.99,NW,315,0.9,1.1,91,0.01,,,0.01,WUHU216HW,2013-07-09 10:37:00,
2013-07-09 06:42:00,67.3,64.5,29.99,NNW,338,0.4,1.1,91,0.01,,,0.01,WUHU216HW,2013-07-09 10:42:00,
2013-07-09 06:47:00,67.5,64.7,29.99,East,90,0.7,1.1,91,0.00,,,0.01,WUHU216HW,2013-07-09 10:47:00,
2013-07-09 06:52:00,67.5,64.7,29.99,NE,45,0.4,1.6,91,0.00,,,0.01,WUHU216HW,2013-07-09 10:52:00,
2013-07-09 06:57:00,67.5,64.7,29.99,ENE,68,2.2,2.2,91,0.00,,,0.01,WUHU216HW,2013-07-09 10:57:00,
2013-07-09 07:02:00,67.5,64.7,29.98,East,90,1.3,2.2,91,0.00,,,0.01,WUHU216HW,2013-07-09 11:02:00,
2013-07-09 07:07:00,67.7,64.9,29.99,ENE,68,0.7,2.5,91,0.00,,,0.01,WUHU216HW,2013-07-09 11:07:00,
2013-07-09 07:12:00,67.9,65.1,29.99,ENE,68,0.4,2.5,91,0.00,,,0.01,WUHU216HW,2013-07-09 11:12:00,
2013-07-09 07:18:00,67.9,65.1,29.99,ESE,113,0.7,1.3,91,0.00,,,0.01,WUHU216HW,2013-07-09 11:18:00,
2013-07-09 07:23:00,67.9,65.1,29.99,North,0,0.4,0.9,91,0.00,,,0.01,WUHU216HW,2013-07-09 11:23:00,
2013-07-09 07:28:00,68.0,65.3,29.99,North,0,0.4,0.9,91,0.00,,,0.01,WUHU216HW,2013-07-09 11:28:00,
2013-07-09 07:33:00,68.0,65.3,29.99,North,0,0.0,0.7,91,0.00,,,0.01,WUHU216HW,2013-07-09 11:33:00,
2013-07-09 07:38:00,68.0,65.3,29.99,North,0,0.0,0.4,91,0.00,,,0.01,WUHU216HW,2013-07-09 11:38:00,
2013-07-09 07:42:00,68.0,65.3,29.99,North,0,0.0,0.4,91,0.00,,,0.01,WUHU216HW,2013-07-09 11:42:00,
2013-07-09 07:47:00,68.0,65.3,29.99,SW,225,0.9,0.9,91,0.00,,,0.01,WUHU216HW,2013-07-09 11:47:00,
2013-07-09 07:52:00,68.0,65.3,30.00,SSW,203,0.4,1.1,91,0.00,,,0.01,WUHU216HW,2013-07-09 11:52:00,
2013-07-09 07:57:00,68.0,65.3,29.99,SW,225,0.4,1.1,91,0.00,,,0.01,WUHU216HW,2013-07-09 11:57:00,
2013-07-09 08:02:00,68.0,65.3,29.99,SW,225,0.4,1.8,91,0.00,,,0.01,WUHU216HW,2013-07-09 12:02:00,
2013-07-09 08:07:00,68.2,65.4,29.99,SW,225,0.2,1.8,91,0.00,,,0.01,WUHU216HW,2013-07-09 12:07:00,
2013-07-09 08:13:00,68.4,65.6,29.99,South,180,0.7,1.8,91,0.00,,,0.01,WUHU216HW,2013-07-09 12:13:00,
2013-07-09 08:18:00,68.6,65.8,29.99,South,180,0.4,1.8,91,0.00,,,0.01,WUHU216HW,2013-07-09 12:18:00,
2013-07-09 08:22:00,68.9,66.2,29.99,SSW,203,0.4,1.8,91,0.00,,,0.01,WUHU216HW,2013-07-09 12:22:00,
2013-07-09 08:28:00,69.5,66.7,29.99,SSW,203,0.4,1.8,91,0.00,,,0.01,WUHU216HW,2013-07-09 12:28:00,
2013-07-09 08:33:00,69.8,67.1,29.99,SW,225,0.9,2.0,91,0.00,,,0.01,WUHU216HW,2013-07-09 12:33:00,
2013-07-09 08:38:00,70.2,67.1,29.99,SSW,203,2.5,2.5,90,0.00,,,0.01,WUHU216HW,2013-07-09 12:38:00,
2013-07-09 08:43:00,70.6,67.5,29.99,SSW,203,0.0,2.7,90,0.00,,,0.01,WUHU216HW,2013-07-09 12:43:00,
2013-07-09 08:48:00,70.7,67.3,29.99,SW,225,0.9,2.7,89,0.00,,,0.01,WUHU216HW,2013-07-09 12:48:00,
2013-07-09 08:52:00,70.9,67.5,29.99,SW,225,2.2,2.5,89,0.00,,,0.01,WUHU216HW,2013-07-09 12:52:00,
2013-07-09 08:57:00,71.3,67.5,29.98,South,180,0.7,2.5,88,0.00,,,0.01,WUHU216HW,2013-07-09 12:57:00,
2013-07-09 09:02:00,71.6,67.9,29.99,NE,45,1.6,2.2,88,0.00,,,0.01,WUHU216HW,2013-07-09 13:02:00,
2013-07-09 09:07:00,71.6,67.9,29.98,NNE,23,1.1,2.5,88,0.00,,,0.01,WUHU216HW,2013-07-09 13:07:00,
2013-07-09 09:12:00,71.6,67.6,29.98,North,0,1.1,2.5,87,0.00,,,0.01,WUHU216HW,2013-07-09 13:12:00,
2013-07-09 09:17:00,71.6,67.6,29.98,NW,315,0.9,2.5,87,0.00,,,0.01,WUHU216HW,2013-07-09 13:17:00,
2013-07-09 09:22:00,71.8,67.4,29.99,WNW,293,1.8,2.5,86,0.00,,,0.01,WUHU216HW,2013-07-09 13:22:00,
2013-07-09 09:27:00,72.0,67.6,29.98,North,0,0.4,2.5,86,0.00,,,0.01,WUHU216HW,2013-07-09 13:27:00,
2013-07-09 09:32:00,72.0,67.2,29.98,North,0,1.1,2.2,85,0.00,,,0.01,WUHU216HW,2013-07-09 13:32:00,
2013-07-09 09:37:00,72.4,67.2,29.98,East,90,1.8,2.0,84,0.00,,,0.01,WUHU216HW,2013-07-09 13:37:00,
2013-07-09 09:42:00,72.4,67.2,29.99,NE,45,1.1,2.5,84,0.00,,,0.01,WUHU216HW,2013-07-09 13:42:00,
2013-07-09 09:47:00,72.5,67.4,29.99,NNE,23,0.9,2.5,84,0.00,,,0.01,WUHU216HW,2013-07-09 13:47:00,
2013-07-09 09:52:00,73.1,68.3,29.98,NE,45,0.7,2.2,85,0.00,,,0.01,WUHU216HW,2013-07-09 13:52:00,
2013-07-09 09:57:00,73.4,68.7,29.99,ENE,68,0.7,2.2,85,0.00,,,0.01,WUHU216HW,2013-07-09 13:57:00,
2013-07-09 10:02:00,73.4,68.3,29.98,ENE,68,4.9,4.9,84,0.00,,,0.01,WUHU216HW,2013-07-09 14:02:00,
2013-07-09 10:07:00,72.7,67.2,29.98,NE,45,4.3,5.4,83,0.00,,,0.01,WUHU216HW,2013-07-09 14:07:00,
2013-07-09 10:12:00,72.5,67.1,29.98,ENE,68,1.8,5.4,83,0.00,,,0.01,WUHU216HW,2013-07-09 14:12:00,
2013-07-09 10:17:00,73.1,68.0,29.98,ENE,68,2.9,5.1,84,0.00,,,0.01,WUHU216HW,2013-07-09 14:17:00,
2013-07-09 10:22:00,73.1,68.0,29.99,NE,45,4.7,5.1,84,0.00,,,0.01,WUHU216HW,2013-07-09 14:22:00,
2013-07-09 10:27:00,73.3,68.1,29.99,NE,45,1.3,4.7,84,0.00,,,0.01,WUHU216HW,2013-07-09 14:27:00,
2013-07-09 10:32:00,74.2,68.4,29.99,ENE,68,3.4,4.7,82,0.00,,,0.01,WUHU216HW,2013-07-09 14:32:00,
2013-07-09 10:37:00,74.0,68.5,29.99,ENE,68,1.1,4.7,83,0.00,,,0.01,WUHU216HW,2013-07-09 14:37:00,
2013-07-09 10:42:00,74.3,68.6,29.99,ENE,68,2.9,4.7,82,0.00,,,0.01,WUHU216HW,2013-07-09 14:42:00,
2013-07-09 10:48:00,75.1,68.6,29.99,ESE,113,0.9,4.0,80,0.00,,,0.01,WUHU216HW,2013-07-09 14:48:00,
2013-07-09 10:53:00,76.1,69.2,29.99,East,90,0.9,3.4,79,0.00,,,0.01,WUHU216HW,2013-07-09 14:53:00,
2013-07-09 10:58:00,76.5,68.4,29.98,NE,45,3.4,4.9,76,0.00,,,0.01,WUHU216HW,2013-07-09 14:58:00,
2013-07-09 11:03:00,76.0,68.7,29.98,SE,135,2.7,4.9,78,0.00,,,0.01,WUHU216HW,2013-07-09 15:03:00,
2013-07-09 11:08:00,77.2,69.9,29.98,ESE,113,2.0,4.3,78,0.00,,,0.01,WUHU216HW,2013-07-09 15:08:00,
2013-07-09 11:13:00,78.8,71.0,29.98,ESE,113,0.0,4.0,77,0.00,,,0.01,WUHU216HW,2013-07-09 15:13:00,
2013-07-09 11:18:00,79.6,70.9,29.98,ESE,113,1.6,2.7,75,0.00,,,0.01,WUHU216HW,2013-07-09 15:18:00,
2013-07-09 11:23:00,79.7,70.3,29.98,ENE,68,1.1,3.8,73,0.00,,,0.01,WUHU216HW,2013-07-09 15:23:00,
2013-07-09 11:28:00,79.9,70.9,29.97,SE,135,1.6,3.8,74,0.00,,,0.01,WUHU216HW,2013-07-09 15:28:00,
2013-07-09 11:33:00,80.3,70.5,29.97,ESE,113,0.4,2.0,72,0.00,,,0.01,WUHU216HW,2013-07-09 15:33:00,
2013-07-09 11:38:00,80.8,70.6,29.97,SSE,158,4.5,4.5,71,0.00,,,0.01,WUHU216HW,2013-07-09 15:38:00,
2013-07-09 11:43:00,81.2,70.5,29.97,WNW,293,1.1,4.5,70,0.00,,,0.01,WUHU216HW,2013-07-09 15:43:00,
2013-07-09 11:48:00,80.8,69.8,29.97,SW,225,0.4,4.5,69,0.00,,,0.01,WUHU216HW,2013-07-09 15:48:00,
2013-07-09 11:53:00,80.6,70.0,29.97,ENE,68,1.1,3.1,70,0.00,,,0.01,WUHU216HW,2013-07-09 15:53:00,
2013-07-09 11:58:00,80.8,69.3,29.97,SSE,158,1.1,3.1,68,0.00,,,0.01,WUHU216HW,2013-07-09 15:58:00,
2013-07-09 12:03:00,81.4,71.1,29.97,NE,45,2.5,3.4,71,0.00,,,0.01,WUHU216HW,2013-07-09 16:03:00,
2013-07-09 12:08:00,81.5,69.9,29.96,West,270,1.8,3.4,68,0.00,,,0.01,WUHU216HW,2013-07-09 16:08:00,
2013-07-09 12:13:00,81.9,71.2,29.96,ESE,113,1.6,2.7,70,0.00,,,0.01,WUHU216HW,2013-07-09 16:13:00,
2013-07-09 12:18:00,82.6,71.4,29.96,SSE,158,2.0,3.4,69,0.00,,,0.01,WUHU216HW,2013-07-09 16:18:00,
2013-07-09 12:23:00,83.3,71.6,29.96,South,180,1.8,3.8,68,0.00,,,0.01,WUHU216HW,2013-07-09 16:23:00,
2013-07-09 12:28:00,84.2,70.7,29.96,SSW,203,6.3,6.3,64,0.00,,,0.01,WUHU216HW,2013-07-09 16:28:00,
2013-07-09 12:33:00,83.9,71.3,29.96,SSW,203,1.1,6.3,66,0.00,,,0.01,WUHU216HW,2013-07-09 16:33:00,
2013-07-09 12:38:00,84.6,72.0,29.96,South,180,2.9,6.3,66,0.00,,,0.01,WUHU216HW,2013-07-09 16:38:00,
2013-07-09 12:43:00,85.5,71.9,29.96,SE,135,4.0,5.1,64,0.00,,,0.01,WUHU216HW,2013-07-09 16:43:00,
2013-07-09 12:48:00,86.2,72.2,29.95,SE,135,4.7,5.8,63,0.00,,,0.01,WUHU216HW,2013-07-09 16:48:00,
2013-07-09 12:53:00,86.6,72.0,29.95,SSW,203,2.9,5.8,62,0.00,,,0.01,WUHU216HW,2013-07-09 16:53:00,
2013-07-09 12:58:00,86.8,71.3,29.95,SSE,158,3.6,4.7,60,0.00,,,0.01,WUHU216HW,2013-07-09 16:58:00,
2013-07-09 13:03:00,86.0,69.5,29.95,South,180,0.9,4.3,58,0.00,,,0.01,WUHU216HW,2013-07-09 17:03:00,
2013-07-09 13:08:00,86.8,70.7,29.95,West,270,1.1,5.1,59,0.00,,,0.01,WUHU216HW,2013-07-09 17:08:00,
2013-07-09 13:13:00,87.1,68.9,29.95,South,180,4.7,6.3,55,0.00,,,0.01,WUHU216HW,2013-07-09 17:13:00,
2013-07-09 13:18:00,87.3,69.1,29.94,SSW,203,2.0,6.3,55,0.00,,,0.01,WUHU216HW,2013-07-09 17:18:00,
2013-07-09 13:23:00,87.7,70.6,29.94,SSE,158,6.3,10.3,57,0.00,,,0.01,WUHU216HW,2013-07-09 17:23:00,
2013-07-09 13:28:00,88.2,70.6,29.94,SSW,203,3.4,10.3,56,0.00,,,0.01,WUHU216HW,2013-07-09 17:28:00,
2013-07-09 13:33:00,88.2,71.1,29.94,SSE,158,8.7,8.7,57,0.00,,,0.01,WUHU216HW,2013-07-09 17:33:00,
2013-07-09 13:38:00,88.6,71.4,29.94,South,180,4.0,8.7,57,0.00,,,0.01,WUHU216HW,2013-07-09 17:38:00,
2013-07-09 13:43:00,88.2,70.0,29.94,SE,135,3.6,8.7,55,0.00,,,0.01,WUHU216HW,2013-07-09 17:43:00,
2013-07-09 13:48:00,87.7,69.5,29.94,SSW,203,3.8,7.2,55,0.00,,,0.01,WUHU216HW,2013-07-09 17:48:00,
2013-07-09 13:53:00,88.2,70.0,29.94,South,180,5.4,7.2,55,0.00,,,0.01,WUHU216HW,2013-07-09 17:53:00,
2013-07-09 13:58:00,87.7,69.5,29.93,South,180,3.6,7.4,55,0.00,,,0.01,WUHU216HW,2013-07-09 17:58:00,
2013-07-09 14:03:00,87.8,70.2,29.94,South,180,6.9,7.6,56,0.00,,,0.01,WUHU216HW,2013-07-09 18:03:00,
2013-07-09 14:08:00,87.7,68.4,29.94,South,180,5.1,8.7,53,0.00,,,0.01,WUHU216HW,2013-07-09 18:08:00,
2013-07-09 14:13:00,88.2,70.6,29.93,SE,135,3.4,8.7,56,0.00,,,0.01,WUHU216HW,2013-07-09 18:13:00,
2013-07-09 14:18:00,88.9,70.1,29.93,SSE,158,7.2,7.6,54,0.00,,,0.01,WUHU216HW,2013-07-09 18:18:00,
2013-07-09 14:23:00,88.0,69.9,29.93,SE,135,7.4,12.1,55,0.00,,,0.01,WUHU216HW,2013-07-09 18:23:00,
2013-07-09 14:28:00,87.5,70.4,29.93,South,180,11.2,12.5,57,0.00,,,0.01,WUHU216HW,2013-07-09 18:28:00,
2013-07-09 14:33:00,86.8,69.7,29.93,SSE,158,10.1,12.5,57,0.00,,,0.01,WUHU216HW,2013-07-09 18:33:00,
2013-07-09 14:38:00,86.0,69.5,29.93,SSE,158,8.9,13.2,58,0.00,,,0.01,WUHU216HW,2013-07-09 18:38:00,
2013-07-09 14:43:00,86.6,70.0,29.93,South,180,5.1,13.2,58,0.00,,,0.01,WUHU216HW,2013-07-09 18:43:00,
2013-07-09 14:48:00,86.6,70.0,29.93,SSE,158,6.0,10.5,58,0.00,,,0.01,WUHU216HW,2013-07-09 18:48:00,
2013-07-09 14:53:00,86.8,70.2,29.93,SSE,158,7.8,9.8,58,0.00,,,0.01,WUHU216HW,2013-07-09 18:53:00,
2013-07-09 14:58:00,86.8,70.7,29.93,East,90,7.2,9.8,59,0.00,,,0.01,WUHU216HW,2013-07-09 18:58:00,
2013-07-09 15:03:00,86.4,69.8,29.93,SSW,203,4.7,9.2,58,0.00,,,0.01,WUHU216HW,2013-07-09 19:03:00,
2013-07-09 15:08:00,86.6,70.6,29.92,SSE,158,5.6,8.9,59,0.00,,,0.01,WUHU216HW,2013-07-09 19:08:00,
2013-07-09 15:13:00,86.9,69.8,29.92,South,180,3.4,8.9,57,0.00,,,0.01,WUHU216HW,2013-07-09 19:13:00,
2013-07-09 15:18:00,87.3,70.2,29.92,South,180,3.8,12.1,57,0.00,,,0.01,WUHU216HW,2013-07-09 19:18:00,
2013-07-09 15:23:00,86.8,69.7,29.92,SE,135,3.8,12.1,57,0.00,,,0.01,WUHU216HW,2013-07-09 19:23:00,
2013-07-09 15:28:00,87.1,70.0,29.91,SE,135,6.7,9.2,57,0.00,,,0.01,WUHU216HW,2013-07-09 19:28:00,
2013-07-09 15:33:00,87.8,70.2,29.92,SSE,158,4.9,9.2,56,0.00,,,0.01,WUHU216HW,2013-07-09 19:33:00,
2013-07-09 15:38:00,88.4,70.7,29.91,SSE,158,3.4,8.1,56,0.00,,,0.01,WUHU216HW,2013-07-09 19:38:00,
2013-07-09 15:43:00,88.7,71.0,29.91,SE,135,6.3,9.2,56,0.00,,,0.01,WUHU216HW,2013-07-09 19:43:00,
2013-07-09 15:48:00,88.0,69.3,29.91,South,180,5.6,9.2,54,0.00,,,0.01,WUHU216HW,2013-07-09 19:48:00,
2013-07-09 15:53:00,87.8,69.1,29.91,SSW,203,2.7,8.5,54,0.00,,,0.01,WUHU216HW,2013-07-09 19:53:00,
2013-07-09 15:58:00,87.8,69.7,29.91,SSW,203,5.6,6.9,55,0.00,,,0.01,WUHU216HW,2013-07-09 19:58:00,
2013-07-09 16:03:00,88.2,70.0,29.91,SSE,158,5.4,8.9,55,0.00,,,0.01,WUHU216HW,2013-07-09 20:03:00,
2013-07-09 16:08:00,88.7,69.9,29.91,SW,225,6.0,8.9,54,0.00,,,0.01,WUHU216HW,2013-07-09 20:08:00,
2013-07-09 16:13:00,89.1,70.8,29.91,South,180,4.7,7.6,55,0.00,,,0.01,WUHU216HW,2013-07-09 20:13:00,
2013-07-09 16:18:00,89.1,70.3,29.91,South,180,4.0,7.6,54,0.00,,,0.01,WUHU216HW,2013-07-09 20:18:00,
2013-07-09 16:23:00,88.9,70.1,29.91,South,180,7.4,7.4,54,0.00,,,0.01,WUHU216HW,2013-07-09 20:23:00,
2013-07-09 16:28:00,88.7,69.9,29.91,SSE,158,4.9,8.1,54,0.00,,,0.01,WUHU216HW,2013-07-09 20:28:00,
2013-07-09 16:33:00,88.4,69.6,29.91,SSW,203,6.3,8.1,54,0.00,,,0.01,WUHU216HW,2013-07-09 20:33:00,
2013-07-09 16:38:00,88.4,69.6,29.91,SSE,158,6.5,7.8,54,0.00,,,0.01,WUHU216HW,2013-07-09 20:38:00,
2013-07-09 16:43:00,88.6,69.8,29.91,SSW,203,4.5,7.8,54,0.00,,,0.01,WUHU216HW,2013-07-09 20:43:00,
2013-07-09 16:48:00,88.4,70.1,29.91,South,180,4.7,10.1,55,0.00,,,0.01,WUHU216HW,2013-07-09 20:48:00,
2013-07-09 16:53:00,88.7,69.9,29.91,SSW,203,5.4,10.1,54,0.00,,,0.01,WUHU216HW,2013-07-09 20:53:00,
2013-07-09 16:58:00,89.5,70.6,29.91,SSE,158,1.8,8.5,54,0.00,,,0.01,WUHU216HW,2013-07-09 20:58:00,
2013-07-09 17:03:00,89.6,70.7,29.90,SE,135,2.9,6.0,54,0.00,,,0.01,WUHU216HW,2013-07-09 21:03:00,
2013-07-09 17:08:00,89.3,70.4,29.91,SSE,158,4.0,4.9,54,0.00,,,0.01,WUHU216HW,2013-07-09 21:08:00,
2013-07-09 17:13:00,87.8,69.1,29.91,ESE,113,2.0,4.9,54,0.00,,,0.01,WUHU216HW,2013-07-09 21:13:00,
2013-07-09 17:18:00,86.4,68.3,29.91,SE,135,1.6,4.5,55,0.00,,,0.01,WUHU216HW,2013-07-09 21:18:00,
2013-07-09 17:23:00,85.5,68.0,29.91,ESE,113,0.7,2.7,56,0.00,,,0.01,WUHU216HW,2013-07-09 21:23:00,
2013-07-09 17:28:00,85.0,68.6,29.90,East,90,1.8,2.7,58,0.00,,,0.01,WUHU216HW,2013-07-09 21:28:00,
2013-07-09 17:33:00,83.7,68.9,29.90,ENE,68,2.9,3.4,61,0.00,,,0.01,WUHU216HW,2013-07-09 21:33:00,
2013-07-09 17:38:00,82.8,68.9,29.90,NE,45,3.4,7.4,63,0.00,,,0.01,WUHU216HW,2013-07-09 21:38:00,
2013-07-09 17:43:00,83.7,69.3,29.90,SSW,203,1.1,7.4,62,0.00,,,0.01,WUHU216HW,2013-07-09 21:43:00,
2013-07-09 17:48:00,85.5,70.1,29.90,West,270,3.4,3.4,60,0.00,,,0.01,WUHU216HW,2013-07-09 21:48:00,
2013-07-09 17:53:00,85.9,68.9,29.90,South,180,5.4,5.4,57,0.00,,,0.01,WUHU216HW,2013-07-09 21:53:00,
2013-07-09 17:58:00,85.1,68.7,29.90,ESE,113,3.1,6.9,58,0.00,,,0.01,WUHU216HW,2013-07-09 21:58:00,
2013-07-09 18:03:00,84.4,68.6,29.90,SSE,158,4.0,6.9,59,0.00,,,0.01,WUHU216HW,2013-07-09 22:03:00,
2013-07-09 18:08:00,83.7,68.4,29.90,SSE,158,1.3,5.6,60,0.00,,,0.01,WUHU216HW,2013-07-09 22:08:00,
2013-07-09 18:13:00,83.0,67.1,29.90,SSE,158,4.3,4.9,59,0.00,,,0.01,WUHU216HW,2013-07-09 22:13:00,
2013-07-09 18:18:00,82.3,67.0,29.91,SSE,158,4.3,6.3,60,0.00,,,0.01,WUHU216HW,2013-07-09 22:18:00,
2013-07-09 18:23:00,81.5,66.8,29.90,SE,135,1.1,6.3,61,0.00,,,0.01,WUHU216HW,2013-07-09 22:23:00,
2013-07-09 18:28:00,81.0,66.8,29.91,SSE,158,1.1,5.8,62,0.00,,,0.01,WUHU216HW,2013-07-09 22:28:00,
2013-07-09 18:33:00,80.6,67.3,29.91,SW,225,3.8,4.0,64,0.00,,,0.01,WUHU216HW,2013-07-09 22:33:00,
2013-07-09 18:38:00,78.7,68.9,29.92,SW,225,3.8,4.9,72,0.09,,,0.10,WUHU216HW,2013-07-09 22:38:00,
2013-07-09 18:43:00,75.1,67.4,29.92,South,180,9.6,11.9,77,0.17,,,0.18,WUHU216HW,2013-07-09 22:43:00,
2013-07-09 18:48:00,72.7,65.9,29.92,SSE,158,12.8,12.8,79,0.28,,,0.27,WUHU216HW,2013-07-09 22:48:00,
2013-07-09 18:53:00,72.0,65.9,29.92,ESE,113,9.2,12.8,81,0.31,,,0.32,WUHU216HW,2013-07-09 22:53:00,
2013-07-09 18:58:00,72.4,66.3,29.92,SE,135,6.9,12.8,81,0.33,,,0.33,WUHU216HW,2013-07-09 22:58:00,
2013-07-09 19:03:00,72.7,66.6,29.92,SSE,158,5.4,9.2,81,0.33,,,0.33,WUHU216HW,2013-07-09 23:03:00,
2013-07-09 19:08:00,72.7,67.2,29.93,SSW,203,4.5,6.9,83,0.33,,,0.33,WUHU216HW,2013-07-09 23:08:00,
2013-07-09 19:13:00,72.5,66.4,29.93,SE,135,0.4,5.6,81,0.33,,,0.33,WUHU216HW,2013-07-09 23:13:00,
2013-07-09 19:18:00,72.7,66.6,29.93,SSE,158,3.1,4.7,81,0.33,,,0.33,WUHU216HW,2013-07-09 23:18:00,
2013-07-09 19:23:00,72.9,66.8,29.92,SSE,158,5.1,5.1,81,0.33,,,0.33,WUHU216HW,2013-07-09 23:23:00,
2013-07-09 19:28:00,73.1,67.0,29.92,SE,135,2.9,5.1,81,0.33,,,0.33,WUHU216HW,2013-07-09 23:28:00,
2013-07-09 19:33:00,72.9,66.8,29.92,SSE,158,3.4,6.3,81,0.28,,,0.33,WUHU216HW,2013-07-09 23:33:00,
2013-07-09 19:38:00,72.7,67.0,29.92,SW,225,2.0,6.3,82,0.19,,,0.33,WUHU216HW,2013-07-09 23:38:00,
2013-07-09 19:43:00,72.7,66.2,29.92,SW,225,1.1,5.1,80,0.13,,,0.33,WUHU216HW,2013-07-09 23:43:00,
2013-07-09 19:48:00,72.4,65.9,29.93,SE,135,1.6,5.1,80,0.02,,,0.33,WUHU216HW,2013-07-09 23:48:00,
2013-07-09 19:53:00,72.7,66.2,29.93,SE,135,1.8,3.4,80,0.00,,,0.33,WUHU216HW,2013-07-09 23:53:00,
2013-07-09 19:58:00,72.7,66.6,29.92,SE,135,1.8,3.4,81,0.00,,,0.33,WUHU216HW,2013-07-09 23:58:00,
2013-07-09 20:03:00,72.7,67.0,29.93,ESE,113,2.2,3.6,82,0.00,,,0.33,WUHU216HW,2013-07-10 00:03:00,
2013-07-09 20:08:00,72.4,67.6,29.93,NE,45,2.2,4.7,85,0.00,,,0.33,WUHU216HW,2013-07-10 00:08:00,
2013-07-09 20:13:00,71.6,67.2,29.93,NNE,23,1.8,4.7,86,0.00,,,0.33,WUHU216HW,2013-07-10 00:13:00,
2013-07-09 20:18:00,71.5,67.1,29.93,ENE,68,1.8,3.4,86,0.00,,,0.33,WUHU216HW,2013-07-10 00:18:00,
2013-07-09 20:23:00,71.5,66.7,29.93,NNW,338,0.4,3.1,85,0.00,,,0.33,WUHU216HW,2013-07-10 00:23:00,
2013-07-09 20:28:00,71.3,66.5,29.93,NNW,338,0.0,1.8,85,0.00,,,0.33,WUHU216HW,2013-07-10 00:28:00,
2013-07-09 20:33:00,71.1,66.3,29.93,West,270,0.4,1.3,85,0.00,,,0.33,WUHU216HW,2013-07-10 00:33:00,
2013-07-09 20:38:00,70.9,66.2,29.93,SSW,203,2.5,3.8,85,0.00,,,0.33,WUHU216HW,2013-07-10 00:38:00,
2013-07-09 20:43:00,70.9,66.2,29.93,NE,45,1.1,3.8,85,0.00,,,0.33,WUHU216HW,2013-07-10 00:43:00,
2013-07-09 20:48:00,70.6,66.5,29.93,NNE,23,2.5,2.7,87,0.00,,,0.33,WUHU216HW,2013-07-10 00:48:00,
2013-07-09 20:53:00,70.2,66.2,29.94,North,0,0.7,3.4,87,0.00,,,0.33,WUHU216HW,2013-07-10 00:53:00,
2013-07-09 20:58:00,70.0,66.2,29.94,East,90,2.5,3.4,88,0.00,,,0.33,WUHU216HW,2013-07-10 00:58:00,
2013-07-09 21:03:00,69.7,66.2,29.94,NE,45,4.0,4.7,89,0.00,,,0.33,WUHU216HW,2013-07-10 01:03:00,
2013-07-09 21:08:00,69.5,66.1,29.94,NNE,23,3.6,5.8,89,0.00,,,0.33,WUHU216HW,2013-07-10 01:08:00,
2013-07-09 21:13:00,69.5,66.1,29.94,North,0,1.3,5.8,89,0.00,,,0.33,WUHU216HW,2013-07-10 01:13:00,
2013-07-09 21:18:00,69.3,65.6,29.94,ENE,68,0.0,5.8,88,0.00,,,0.33,WUHU216HW,2013-07-10 01:18:00,
2013-07-09 21:23:00,69.3,65.6,29.94,WSW,248,1.8,1.8,88,0.00,,,0.33,WUHU216HW,2013-07-10 01:23:00,
2013-07-09 21:28:00,69.1,65.4,29.94,WNW,293,0.0,1.8,88,0.00,,,0.33,WUHU216HW,2013-07-10 01:28:00,
2013-07-09 21:33:00,68.9,65.3,29.94,WNW,293,0.0,1.8,88,0.00,,,0.33,WUHU216HW,2013-07-10 01:33:00,
2013-07-09 21:38:00,68.8,65.1,29.94,WNW,293,0.2,0.2,88,0.00,,,0.33,WUHU216HW,2013-07-10 01:38:00,
2013-07-09 21:43:00,68.6,64.9,29.94,West,270,1.1,1.8,88,0.00,,,0.33,WUHU216HW,2013-07-10 01:43:00,
2013-07-09 21:48:00,68.4,64.7,29.95,NNE,23,1.1,1.8,88,0.00,,,0.33,WUHU216HW,2013-07-10 01:48:00,
2013-07-09 21:53:00,68.4,64.7,29.95,NNE,23,0.0,1.1,88,0.00,,,0.33,WUHU216HW,2013-07-10 01:53:00,
2013-07-09 21:58:00,68.0,64.4,29.95,WNW,293,0.0,1.1,88,0.00,,,0.33,WUHU216HW,2013-07-10 01:58:00,
2013-07-09 22:03:00,68.0,64.4,29.95,NNW,338,0.2,1.1,88,0.00,,,0.33,WUHU216HW,2013-07-10 02:03:00,
2013-07-09 22:08:00,67.9,64.2,29.94,SSE,158,1.1,1.6,88,0.00,,,0.33,WUHU216HW,2013-07-10 02:08:00,
2013-07-09 22:13:00,67.7,64.0,29.94,SW,225,0.0,1.6,88,0.00,,,0.33,WUHU216HW,2013-07-10 02:13:00,
2013-07-09 22:18:00,67.5,63.8,29.95,WSW,248,1.1,1.1,88,0.00,,,0.33,WUHU216HW,2013-07-10 02:18:00,
2013-07-09 22:23:00,67.5,63.8,29.95,NW,315,1.6,1.8,88,0.00,,,0.33,WUHU216HW,2013-07-10 02:23:00,
2013-07-09 22:28:00,67.3,63.9,29.95,NW,315,0.0,1.8,89,0.00,,,0.33,WUHU216HW,2013-07-10 02:28:00,
2013-07-09 22:33:00,67.3,63.9,29.95,NW,315,0.0,1.3,89,0.00,,,0.33,WUHU216HW,2013-07-10 02:33:00,
2013-07-09 22:38:00,67.3,63.9,29.95,North,0,0.0,0.7,89,0.00,,,0.33,WUHU216HW,2013-07-10 02:38:00,
2013-07-09 22:43:00,67.3,63.9,29.95,North,0,0.0,0.7,89,0.00,,,0.33,WUHU216HW,2013-07-10 02:43:00,
2013-07-09 22:48:00,67.3,63.9,29.95,South,180,1.1,1.1,89,0.00,,,0.33,WUHU216HW,2013-07-10 02:48:00,
2013-07-09 22:53:00,67.3,63.9,29.95,South,180,0.4,1.1,89,0.00,,,0.33,WUHU216HW,2013-07-10 02:53:00,
2013-07-09 22:58:00,67.3,63.9,29.95,SSW,203,0.0,1.1,89,0.00,,,0.33,WUHU216HW,2013-07-10 02:58:00,
2013-07-09 23:03:00,67.5,64.1,29.95,NNW,338,0.4,0.4,89,0.00,,,0.33,WUHU216HW,2013-07-10 03:03:00,
2013-07-09 23:08:00,67.3,64.3,29.95,NNW,338,0.0,0.4,90,0.00,,,0.33,WUHU216HW,2013-07-10 03:08:00,
2013-07-09 23:13:00,67.3,64.3,29.94,NNE,23,1.1,1.1,90,0.00,,,0.33,WUHU216HW,2013-07-10 03:13:00,
2013-07-09 23:18:00,67.3,64.3,29.94,NNW,338,0.0,1.1,90,0.00,,,0.33,WUHU216HW,2013-07-10 03:18:00,
2013-07-09 23:23:00,67.3,64.3,29.95,NNW,338,0.9,1.1,90,0.00,,,0.33,WUHU216HW,2013-07-10 03:23:00,
2013-07-09 23:28:00,67.3,64.5,29.94,NNE,23,2.5,2.7,91,0.00,,,0.33,WUHU216HW,2013-07-10 03:28:00,
2013-07-09 23:33:00,67.3,64.5,29.95,NNW,338,1.1,2.7,91,0.00,,,0.33,WUHU216HW,2013-07-10 03:33:00,
2013-07-09 23:38:00,67.1,64.4,29.94,West,270,0.7,2.5,91,0.00,,,0.33,WUHU216HW,2013-07-10 03:38:00,
2013-07-09 23:43:00,67.1,64.1,29.94,West,270,1.1,1.3,90,0.00,,,0.33,WUHU216HW,2013-07-10 03:43:00,
2013-07-09 23:48:00,67.1,64.4,29.94,NNW,338,0.2,1.3,91,0.00,,,0.33,WUHU216HW,2013-07-10 03:48:00,
2013-07-09 23:53:00,67.1,64.4,29.94,WNW,293,1.8,1.8,91,0.00,,,0.33,WUHU216HW,2013-07-10 03:53:00,
2013-07-09 23:58:00,67.0,64.2,29.94,WNW,293,1.1,1.8,91,0.00,,,0.33,WUHU216HW,2013-07-10 03:58:00,